Date,TemperatureHighF,TemperatureAvgF,TemperatureLowF,DewpointHighF,DewpointAvgF,DewpointLowF,HumidityHigh,HumidityAvg,HumidityLow,PressureMaxIn,PressureMinIn,WindSpeedMaxMPH,WindSpeedAvgMPH,GustSpeedMaxMPH,PrecipitationSumIn
2013-3-1,34,27,22,19,17,12,75,66,51,30.30,30.19,14,4,19,0.00
2013-3-2,28,21,11,13,11,7,85,66,51,30.32,30.19,13,4,16,0.00
2013-3-3,33,22,9,12,5,-5,85,54,19,30.21,30.10,6,2,10,0.00
2013-3-4,32,24,14,22,15,7,81,69,54,30.16,30.07,18,6,23,0.00
2013-3-5,31,28,27,28,24,19,92,84,72,30.18,29.99,14,5,19,0.02
2013-3-6,33,28,19,25,22,15,86,79,65,30.34,30.19,17,6,19,0.01
2013-3-7,38,26,14,20,17,11,89,70,45,30.44,30.34,9,2,10,0.03
2013-3-8,43,31,19,28,23,15,88,73,54,30.47,30.25,10,4,17,0.03
2013-3-9,40,36,32,37,32,26,96,86,78,30.25,29.77,12,6,19,0.25
2013-3-10,40,38,34,38,37,33,97,94,87,29.86,29.73,11,3,20,0.21
2013-3-11,35,32,27,32,29,22,96,89,81,29.77,29.58,15,6,22,0.10
2013-3-12,30,27,23,25,22,16,92,80,63,30.06,29.77,18,6,29,0.10
2013-3-13,33,25,18,17,11,4,83,59,30,30.32,30.08,19,8,26,0.00
2013-3-14,38,27,16,29,20,12,88,76,63,30.32,30.04,8,2,12,0.01
2013-3-15,38,30,28,34,23,-100,95,86,84,30.05,29.86,14,-50,19,0.11
2013-3-16,29,24,20,26,18,12,94,78,59,30.16,29.88,14,6,18,0.02
2013-3-17,28,20,12,17,11,6,81,68,54,30.33,30.06,14,6,19,0.02
2013-3-18,33,24,17,30,21,14,93,88,80,30.06,29.57,14,5,25,0.06
2013-3-19,28,20,14,14,10,5,85,67,46,30.05,29.68,28,12,36,0.06
2013-3-20,19,14,7,6,2,-3,71,61,52,30.12,30.05,21,11,27,0.00
2013-3-21,27,18,7,13,8,2,82,67,52,30.12,30.06,17,5,18,0.00
2013-3-22,36,25,11,19,13,7,85,64,44,30.10,30.05,9,2,16,0.01
2013-3-23,44,32,22,26,21,15,80,65,44,30.16,30.08,9,2,13,0.01
2013-3-24,37,33,30,26,24,22,81,71,59,30.11,29.87,16,6,20,0.01
2013-3-25,39,32,23,26,22,19,87,70,51,30.15,29.92,16,6,22,0.00
2013-3-26,41,35,29,27,23,21,79,63,48,30.27,30.15,16,7,21,0.00
2013-3-27,44,38,32,26,22,17,73,54,38,30.32,30.27,15,5,19,0.00
2013-3-28,47,37,23,23,20,17,83,52,31,30.36,30.29,12,3,16,0.00
2013-3-29,54,40,24,25,21,19,85,52,26,30.34,30.19,7,1,10,0.00
2013-3-30,49,43,38,44,34,24,96,72,55,30.19,29.81,18,5,18,0.21
2013-3-31,41,38,31,38,30,16,96,76,39,29.94,29.70,24,8,29,0.01